Regional Weather Roundup
Issued by NWS Albany, NY

Home | Current Version | Previous Version | Text Only | Print | Product List | Glossary On
Versions: 1 2 3 4 5 6 7 8 9 10 11 12 13 14 15 16 17 18 19 20 21 22 23 24 25 26 27 28 29 30 31 32 33 34 35 36 37 38 39 40 41 42 43 44 45 46 47 48 49 50
000
ASUS41 KALY 280310
RWRALY

NEW YORK STATE HOURLY WEATHER ROUNDUP
NATIONAL WEATHER SERVICE ALBANY NY
1000 PM EST FRI FEB 27 2015

NOTE: "FAIR" INDICATES FEW OR NO CLOUDS BELOW 12,000 FEET WITH NO
SIGNIFICANT WEATHER AND/OR NO OBSTRUCTIONS TO VISIBILITY.

NYZ032-033-038>043-046>054-057>066-NYZ062>081-280400-
EAST


CITY           SKY/WX    TMP DP  RH WIND       PRES   REMARKS
ALBANY         CLEAR     13  -1  54 NW6       30.60R WCI   4
GLENS FALLS    CLEAR     13  -5  44 W7        30.56R WCI   3
POUGHKEEPSIE   CLEAR     11   2  67 CALM      30.58R
NEWBURGH       CLEAR     16   1  53 NW9       30.56R WCI   4
MONTGOMERY     CLEAR     16  -4  41 NW7       30.55R WCI   6
WHITE PLAINS   CLEAR     19  -2  39 NW12      30.54R WCI   7
ISLIP          CLEAR     22   4  46 NW9       30.54R WCI  12
NEW YORK CITY  CLEAR     24   2  38 N16G24    30.58R WCI  11
CENTRAL PARK   CLEAR     24   0  35 MISG      30.59R
$$

NYZ005>009-017-018-044>046-055-056-280400-
CENTRAL


CITY           SKY/WX    TMP DP  RH WIND       PRES   REMARKS
FULTON         CLOUDY     9  -2  61 SW9       30.61R WCI  -4
SYRACUSE       PTCLDY     9  -2  61 W9        30.63R WCI  -4
ROME           CLOUDY     9   0  67 W8        30.62R WCI  -3
ELMIRA         CLEAR      6  -7  54 CALM      30.58R
BINGHAMTON     CLEAR      4  -5  66 NW6       30.49R WCI  -7
MONTICELLO     CLEAR      9  -6  52 NW7       30.49R WCI  -3
$$

NYZ026>034-041>043-280400-
NORTH


CITY           SKY/WX    TMP DP  RH WIND       PRES   REMARKS
WATERTOWN      LGT SNOW  14   9  80 SW12      30.60R WCI   0
FORT DRUM      NOT AVBL
MASSENA        CLEAR      9  -1  64 SW14      30.55R WCI  -7
SARANAC LAKE   PTCLDY    -2  -7  79 CALM      30.40R
PLATTSBURGH    CLEAR     11  -2  56 VRB5      30.52R WCI   3
$$

NYZ001>004-010>016-019>021-280400-
WEST


CITY           SKY/WX    TMP DP  RH WIND       PRES   REMARKS
NIAGARA FALLS  PTCLDY     5   0  79 SW14      30.63R WCI -12
BUFFALO        CLEAR      5  -1  76 SW10      30.63R WCI -10
DUNKIRK        CLEAR      3  -3  76 S8        30.65R WCI -10
JAMESTOWN      CLEAR      1  -2  85 W6        30.52R WCI -10
WELLSVILLE     CLEAR      2  -9  60 W8        30.49R WCI -12
ROCHESTER      CLEAR      5  -2  72 SW10      30.62R WCI -10
PENN YAN       CLEAR      7  -8  50 SW9       30.58R WCI  -7
$$

             KEY
       WCI = WIND CHILL INDEX
       VSB = VISIBILITY
       HX  = HEAT INDEX
$$



USA.gov is the U.S. government's official web portal to all federal, state and local government web resources and services.